Location: Bailleul
(50.3375°N, 2.8513°E)
Time: 10:58:34
(UTC+00:00)

Cosmos 2016 Rocket - Pass Details

Date: 26 October 2021
Orbit: 946 x 1000 km, 83.0° (Epoch: 01 December)

Event Time Altitude Azimuth Distance (km) Brightness Sun altitude
Rises 20:01:58 0° 200° (SSW) 3,653 7.0 -33.2°
Enters shadow 20:02:55 - 202° (SSW) 3,295 6.8 -33.3°
Exits shadow 20:11:53 49° 329° (NNW) 1,217 4.6 -34.6°
Drops below altitude 10° 20:16:40 10° 4° (N) 2,690 6.5 -35.3°
Sets 20:19:13 0° 8° (N) 3,635 7.2 -35.7°
